Location: Potomac
(46.8816°N, 113.5795°W)
Time: 08:18:33
(UTC+00:00)

NANOSAT C BR1 - Pass Details

Date: 03 July 2022
Orbit: 584 x 599 km, 98.0° (Epoch: 17 August)

Event Time Altitude Azimuth Distance (km) Brightness Sun altitude
Rises 09:30:35 0° 17° (NNE) 2,853 ? -15.7°
Reaches altitude 10° 09:32:48 10° 21° (NNE) 1,948 ? -15.6°
Maximum altitude 09:36:58 57° 101° (E) 710 ? -15.2°
Enters shadow 09:39:42 20° 174° (S) 1,383 ? -15.0°
